When you browse on this site, cookies collect data to enhance your experience and personalize the content and advertising you see.
Visit our Privacy Policy to learn more. By continuing to use the site, you agree to this use of cookies and data.
  • In Spain
  • List of Countries
  • For 7 days
  • Water Temperature
  • Weather Map
  • Weather Widgets
  • user-avatar
    Login

    Hourly Weather Trieste

    Today, 20 November, Wednesday

    Time Temperature Precipitation Wind Pressure Humidity
    00:00 +12°C° 0 mm 2 mps 758 mmHg 92%
    01:00 +10°C° 0 mm 2 mps 758 mmHg 91%
    02:00 +10°C° 0 mm 2 mps 757 mmHg 91%
    03:00 +10°C° 0 mm 2 mps 757 mmHg 90%
    04:00 +10°C° 0 mm 2 mps 757 mmHg 90%
    05:00 +10°C° 0 mm 2 mps 756 mmHg 90%
    06:00 +10°C° 0 mm 2 mps 756 mmHg 89%
    07:00 +9°C° 0 mm 2 mps 756 mmHg 89%
    08:00 +10°C° 0 mm 2 mps 756 mmHg 87%
    09:00 +12°C° 0 mm 2 mps 756 mmHg 84%
    10:00 +13°C° 0 mm 2 mps 756 mmHg 82%
    11:00 +14°C° 0 mm 2 mps 756 mmHg 79%
    12:00 +15°C° 0 mm 1 mps 755 mmHg 76%
    13:00 +15°C° 0 mm 1 mps 755 mmHg 73%
    14:00 +15°C° 0 mm 1 mps 755 mmHg 77%
    15:00 +14°C° 0 mm 1 mps 755 mmHg 80%
    16:00 +13°C° 0 mm 1 mps 754 mmHg 84%
    17:00 +13°C° 0 mm 1 mps 755 mmHg 85%
    18:00 +13°C° 0 mm 1 mps 755 mmHg 86%
    19:00 +12°C° 0 mm 1 mps 755 mmHg 87%
    20:00 +12°C° 0 mm 1 mps 755 mmHg 88%
    21:00 +12°C° 0 mm 1 mps 755 mmHg 89%
    22:00 +12°C° 0 mm 1 mps 755 mmHg 90%
    23:00 +12°C° 0 mm 1 mps 756 mmHg 91%

    Tomorrow, 21 November, Thursday

    Time Temperature Precipitation Wind Pressure Humidity
    00:00 +12°C° 0 mm 1 mps 756 mmHg 93%
    01:00 +12°C° 0 mm 2 mps 756 mmHg 94%
    02:00 +12°C° 0.3 mm 2 mps 756 mmHg 94%
    03:00 +12°C° 0.3 mm 2 mps 756 mmHg 95%
    04:00 +12°C° 0.3 mm 2 mps 756 mmHg 96%
    05:00 +12°C° 0.2 mm 2 mps 756 mmHg 96%
    06:00 +12°C° 0.2 mm 2 mps 756 mmHg 96%
    07:00 +12°C° 0.2 mm 1 mps 756 mmHg 96%
    08:00 +13°C° 0.2 mm 2 mps 756 mmHg 94%
    09:00 +13°C° 0.2 mm 2 mps 756 mmHg 92%
    10:00 +14°C° 0.2 mm 2 mps 756 mmHg 90%
    11:00 +14°C° 0.5 mm 2 mps 756 mmHg 87%
    12:00 +14°C° 0.5 mm 2 mps 756 mmHg 85%
    13:00 +15°C° 0.5 mm 2 mps 755 mmHg 83%
    14:00 +14°C° 0.4 mm 2 mps 755 mmHg 85%
    15:00 +13°C° 0.4 mm 2 mps 755 mmHg 88%
    16:00 +13°C° 0.4 mm 1 mps 755 mmHg 90%
    17:00 +12°C° 0.1 mm 1 mps 755 mmHg 91%
    18:00 +11°C° 0.1 mm 1 mps 756 mmHg 92%
    19:00 +11°C° 0.1 mm 1 mps 756 mmHg 93%
    20:00 +11°C° 0.2 mm 1 mps 756 mmHg 93%
    21:00 +11°C° 0.2 mm 1 mps 756 mmHg 93%
    22:00 +10°C° 0.2 mm 2 mps 757 mmHg 92%
    23:00 +11°C° 0.3 mm 1 mps 757 mmHg 92%

    Day after tomorrow, 22 November, Friday

    Time Temperature Precipitation Wind Pressure Humidity
    00:00 +11°C° 0.3 mm 1 mps 757 mmHg 92%
    01:00 +12°C° 0.3 mm 1 mps 757 mmHg 91%
    02:00 +11°C° 0.2 mm 1 mps 757 mmHg 91%
    03:00 +11°C° 0.2 mm 1 mps 757 mmHg 92%
    04:00 +10°C° 0.2 mm 2 mps 756 mmHg 92%
    05:00 +10°C° 0 mm 2 mps 757 mmHg 92%
    06:00 +10°C° 0 mm 1 mps 757 mmHg 92%
    07:00 +10°C° 0 mm 1 mps 757 mmHg 92%
    08:00 +11°C° 0 mm 1 mps 757 mmHg 90%
    09:00 +13°C° 0 mm 1 mps 757 mmHg 87%
    10:00 +14°C° 0 mm 1 mps 757 mmHg 84%
    11:00 +14°C° 0.1 mm 1 mps 757 mmHg 82%
    12:00 +15°C° 0.1 mm 1 mps 757 mmHg 80%
    13:00 +15°C° 0.1 mm 1 mps 757 mmHg 79%
    14:00 +14°C° 0.2 mm 1 mps 757 mmHg 82%
    15:00 +13°C° 0.2 mm 1 mps 757 mmHg 85%
    16:00 +12°C° 0.2 mm 0 mps 757 mmHg 88%
    17:00 +12°C° 0.1 mm 1 mps 757 mmHg 89%
    18:00 +12°C° 0.1 mm 1 mps 757 mmHg 90%
    19:00 +12°C° 0.1 mm 2 mps 757 mmHg 90%
    20:00 +12°C° 0.1 mm 1 mps 757 mmHg 90%
    21:00 +12°C° 0.1 mm 1 mps 757 mmHg 91%
    22:00 +12°C° 0.1 mm 1 mps 757 mmHg 91%
    23:00 +12°C° 0.1 mm 1 mps 757 mmHg 92%

    23 November, Saturday

    Time Temperature Precipitation Wind Pressure Humidity
    00:00 +12°C° 0.1 mm 2 mps 756 mmHg 93%
    01:00 +10°C° 0.1 mm 2 mps 756 mmHg 94%
    02:00 +10°C° 0.1 mm 2 mps 756 mmHg 94%
    03:00 +10°C° 0.1 mm 2 mps 756 mmHg 94%
    04:00 +10°C° 0.1 mm 2 mps 756 mmHg 93%
    05:00 +10°C° 0 mm 2 mps 755 mmHg 94%
    06:00 +10°C° 0 mm 2 mps 755 mmHg 94%
    07:00 +10°C° 0 mm 2 mps 755 mmHg 94%
    08:00 +12°C° 0.1 mm 2 mps 755 mmHg 92%
    09:00 +14°C° 0.1 mm 2 mps 755 mmHg 89%
    10:00 +15°C° 0.1 mm 2 mps 755 mmHg 87%
    11:00 +15°C° 0.2 mm 2 mps 755 mmHg 86%
    12:00 +15°C° 0.2 mm 2 mps 755 mmHg 85%
    13:00 +16°C° 0.2 mm 2 mps 755 mmHg 84%
    14:00 +15°C° 0.3 mm 2 mps 754 mmHg 86%
    15:00 +15°C° 0.3 mm 2 mps 754 mmHg 88%
    16:00 +14°C° 0.3 mm 2 mps 754 mmHg 90%
    17:00 +14°C° 0.5 mm 2 mps 754 mmHg 91%
    18:00 +13°C° 0.5 mm 3 mps 754 mmHg 92%
    19:00 +13°C° 0.5 mm 3 mps 754 mmHg 92%
    20:00 +12°C° 0.5 mm 3 mps 754 mmHg 93%
    21:00 +12°C° 0.5 mm 3 mps 754 mmHg 93%
    22:00 +12°C° 0.5 mm 3 mps 755 mmHg 94%
    23:00 +12°C° 0.4 mm 3 mps 754 mmHg 93%

    24 November, Sunday

    Time Temperature Precipitation Wind Pressure Humidity
    00:00 +12°C° 0.4 mm 3 mps 754 mmHg 93%
    01:00 +13°C° 0.4 mm 3 mps 754 mmHg 93%
    02:00 +12°C° 0.2 mm 3 mps 754 mmHg 93%
    03:00 +12°C° 0.2 mm 3 mps 754 mmHg 93%
    04:00 +12°C° 0.2 mm 3 mps 754 mmHg 93%
    05:00 +11°C° 0.1 mm 3 mps 754 mmHg 93%
    06:00 +12°C° 0.1 mm 2 mps 754 mmHg 93%
    07:00 +12°C° 0.1 mm 2 mps 754 mmHg 92%
    08:00 +13°C° 0 mm 2 mps 754 mmHg 89%
    09:00 +14°C° 0 mm 2 mps 754 mmHg 86%
    10:00 +15°C° 0 mm 2 mps 754 mmHg 83%
    11:00 +16°C° 0 mm 1 mps 754 mmHg 80%
    12:00 +18°C° 0 mm 1 mps 754 mmHg 77%
    13:00 +18°C° 0 mm 1 mps 754 mmHg 73%
    14:00 +16°C° 0 mm 1 mps 754 mmHg 77%
    15:00 +15°C° 0 mm 1 mps 754 mmHg 81%
    16:00 +15°C° 0 mm 2 mps 754 mmHg 85%
    17:00 +14°C° 0 mm 2 mps 754 mmHg 86%
    18:00 +13°C° 0 mm 2 mps 754 mmHg 88%
    19:00 +13°C° 0 mm 2 mps 754 mmHg 89%
    20:00 +12°C° 0 mm 2 mps 754 mmHg 88%
    21:00 +12°C° 0 mm 2 mps 754 mmHg 88%
    22:00 +12°C° 0 mm 2 mps 755 mmHg 88%
    23:00 +10°C° 0 mm 2 mps 754 mmHg 88%

    25 November, Monday

    Time Temperature Precipitation Wind Pressure Humidity
    00:00 +10°C° 0 mm 2 mps 754 mmHg 89%
    01:00 +10°C° 0 mm 2 mps 754 mmHg 89%
    02:00 +10°C° 0 mm 2 mps 754 mmHg 89%
    03:00 +10°C° 0 mm 2 mps 754 mmHg 89%
    04:00 +10°C° 0 mm 3 mps 753 mmHg 89%
    05:00 +9°C° 0 mm 3 mps 754 mmHg 89%
    06:00 +9°C° 0 mm 3 mps 754 mmHg 89%
    07:00 +9°C° 0 mm 3 mps 754 mmHg 89%
    08:00 +10°C° 0 mm 4 mps 754 mmHg 86%
    09:00 +11°C° 0 mm 4 mps 754 mmHg 83%
    10:00 +12°C° 0 mm 4 mps 754 mmHg 80%
    11:00 +13°C° 0 mm 3 mps 754 mmHg 78%
    12:00 +13°C° 0 mm 3 mps 754 mmHg 76%
    13:00 +14°C° 0 mm 3 mps 753 mmHg 74%
    14:00 +13°C° 0 mm 3 mps 753 mmHg 77%
    15:00 +12°C° 0 mm 3 mps 753 mmHg 80%
    16:00 +12°C° 0 mm 4 mps 753 mmHg 83%
    17:00 +11°C° 0 mm 3 mps 754 mmHg 85%
    18:00 +10°C° 0 mm 3 mps 754 mmHg 87%
    19:00 +9°C° 0 mm 3 mps 754 mmHg 90%
    20:00 +9°C° 0 mm 3 mps 754 mmHg 90%
    21:00 +9°C° 0 mm 3 mps 754 mmHg 91%
    22:00 +9°C° 0 mm 2 mps 754 mmHg 91%
    23:00 +9°C° 0 mm 2 mps 754 mmHg 91%
    Show more